Satellite-Ground Cal/Val Site Overpasses Predictions

Prediction of Satellite NPP Overpassing Cal/Val Site: Antarctic Dome C

Ground Cal/Val Site Location: Latitude: -75.10, Longitude: 123.35; Satellite-Ground Site NADIR distance within 100 km.

Table of predicted overpasses for the next 14.0 days since TLE Epoch: 6/1/2019
Interval Starting Time Ending Time Minimum Distance Time Minimum Distance (km)
1 06/01/2019 15:01:16 06/01/2019 15:01:39 06/01/2019 15:01:28 59.65
2 06/02/2019 14:42:25 06/02/2019 14:42:51 06/02/2019 14:42:38 49.50
3 06/03/2019 07:44:07 06/03/2019 07:44:28 06/03/2019 07:44:17 71.01
4 06/04/2019 07:25:15 06/04/2019 07:25:42 06/04/2019 07:25:28 36.88
5 06/06/2019 15:07:43 06/06/2019 15:07:49 06/06/2019 15:07:46 97.53
6 06/07/2019 14:48:42 06/07/2019 14:49:12 06/07/2019 14:48:57 13.68
7 06/09/2019 07:31:32 06/09/2019 07:32:02 06/09/2019 07:31:47 0.90
8 06/12/2019 14:55:01 06/12/2019 14:55:29 06/12/2019 14:55:15 22.85
9 06/13/2019 14:36:19 06/13/2019 14:36:34 06/13/2019 14:36:27 84.17


NCC Satellite Cal/Val Overpasses Prediction Service
